"Sample Date","Sample Time","Sample Value","Units","Flow Rate","Number Channels","Micron Size 0","Counts/Channel 0","Micron Size 1","Counts/Channel 1","Micron Size 2","Counts/Channel 2","Micron Size 3","Counts/Channel 3","Micron Size 4","Counts/Channel 4","Micron Size 5","Counts/Channel 5","Micron Size 6","Counts/Channel 6","Micron Size 7","Counts/Channel 7","Micron Size 8","Counts/Channel 8","Micron Size 9","Counts/Channel 9","Micron Size 10","Counts/Channel 10","Micron Size 11","Counts/Channel 11","Micron Size 12","Counts/Channel 12","Micron Size 13","Counts/Channel 13","Micron Size 14","Counts/Channel 14","Micron Size 15","Counts/Channel 15","Micron Size 16","Counts/Channel 16","Micron Size 17","Counts/Channel 17","Micron Size 18","Counts/Channel 18","Micron Size 19","Counts/Channel 19","Micron Size 20","Counts/Channel 20","Micron Size 21","Counts/Channel 21","Micron Size 22","Counts/Channel 22","Micron Size 23","Counts/Channel 23","Micron Size 24","Counts/Channel 24","Micron Size 25","Counts/Channel 25","Micron Size 26","Counts/Channel 26","Micron Size 27","Counts/Channel 27","Micron Size 28","Counts/Channel 28","Micron Size 29","Counts/Channel 29","Micron Size 30","Counts/Channel 30","Micron Size 31","Counts/Channel 31"
"05/07/08","09:00:03",367.000,"cc",28220.084,6,0.100,288.000,0.200,75.000,0.300,4.000,0.500,0,1.000,0,5.000,0
"05/07/08","09:00:09",350.000,"cc",28297.051,6,0.100,282.000,0.200,61.000,0.300,6.000,0.500,1.000,1.000,0,5.000,0
"05/07/08","09:00:15",345.000,"cc",28369.402,6,0.100,272.000,0.200,66.000,0.300,6.000,0.500,1.000,1.000,0,5.000,0
"05/07/08","09:00:21",368.000,"cc",28251.152,6,0.100,292.000,0.200,69.000,0.300,5.000,0.500,2.000,1.000,0,5.000,0
"05/07/08","09:00:27",347.000,"cc",28268.592,6,0.100,286.000,0.200,57.000,0.300,4.000,0.500,0,1.000,0,5.000,0
"05/07/08","09:00:33",341.000,"cc",28255.287,6,0.100,273.000,0.200,59.000,0.300,9.000,0.500,0,1.000,0,5.000,0
"05/07/08","09:00:39",392.000,"cc",28301.148,6,0.100,306.000,0.200,81.000,0.300,5.000,0.500,0,1.000,0,5.000,0
"05/07/08","09:00:45",368.000,"cc",28363.979,6,0.100,281.000,0.200,81.000,0.300,5.000,0.500,1.000,1.000,0,5.000,0
"05/07/08","09:00:51",317.000,"cc",28354.344,6,0.100,250.000,0.200,62.000,0.300,5.000,0.500,0,1.000,0,5.000,0
"05/07/08","09:00:57",373.000,"cc",28315.836,6,0.100,292.000,0.200,69.000,0.300,11.000,0.500,1.000,1.000,0,5.000,0
"05/07/08","09:01:03",398.000,"cc",28358.758,6,0.100,326.000,0.200,66.000,0.300,4.000,0.500,2.000,1.000,0,5.000,0
"05/07/08","09:01:09",354.000,"cc",28263.490,6,0.100,271.000,0.200,77.000,0.300,6.000,0.500,0,1.000,0,5.000,0
"05/07/08","09:01:15",333.000,"cc",28309.625,6,0.100,269.000,0.200,58.000,0.300,5.000,0.500,1.000,1.000,0,5.000,0
"05/07/08","09:01:21",346.000,"cc",28302.705,6,0.100,270.000,0.200,68.000,0.300,6.000,0.500,2.000,1.000,0,5.000,0
"05/07/08","09:01:27",374.000,"cc",28262.430,6,0.100,284.000,0.200,80.000,0.300,6.000,0.500,4.000,1.000,0,5.000,0
"05/07/08","09:01:33",387.000,"cc",28320.123,6,0.100,297.000,0.200,84.000,0.300,5.000,0.500,1.000,1.000,0,5.000,0
"05/07/08","09:01:39",418.000,"cc",28285.889,6,0.100,323.000,0.200,84.000,0.300,8.000,0.500,2.000,1.000,1.000,5.000,0
"05/07/08","09:01:45",384.000,"cc",28292.143,6,0.100,316.000,0.200,63.000,0.300,4.000,0.500,1.000,1.000,0,5.000,0
"05/07/08","09:01:51",344.000,"cc",28331.902,6,0.100,274.000,0.200,57.000,0.300,8.000,0.500,5.000,1.000,0,5.000,0
"05/07/08","09:01:57",391.000,"cc",28321.592,6,0.100,297.000,0.200,82.000,0.300,10.000,0.500,2.000,1.000,0,5.000,0
"05/07/08","09:02:03",370.000,"cc",28299.213,6,0.100,290.000,0.200,70.000,0.300,9.000,0.500,1.000,1.000,0,5.000,0
"05/07/08","09:02:09",349.000,"cc",28341.918,6,0.100,273.000,0.200,72.000,0.300,4.000,0.500,0,1.000,0,5.000,0
"05/07/08","09:02:15",394.000,"cc",28321.022,6,0.100,304.000,0.200,77.000,0.300,11.000,0.500,2.000,1.000,0,5.000,0
"05/07/08","09:02:21",350.000,"cc",28313.145,6,0.100,280.000,0.200,66.000,0.300,4.000,0.500,0,1.000,0,5.000,0
"05/07/08","09:02:27",335.000,"cc",28326.824,6,0.100,263.000,0.200,67.000,0.300,4.000,0.500,1.000,1.000,0,5.000,0
"05/07/08","09:02:33",377.000,"cc",28299.197,6,0.100,283.000,0.200,81.000,0.300,11.000,0.500,1.000,1.000,1.000,5.000,0
"05/07/08","09:02:39",360.000,"cc",28346.568,6,0.100,284.000,0.200,69.000,0.300,6.000,0.500,1.000,1.000,0,5.000,0
"05/07/08","09:02:45",429.000,"cc",28419.549,6,0.100,327.000,0.200,98.000,0.300,4.000,0.500,0,1.000,0,5.000,0
"05/07/08","09:02:51",386.000,"cc",28342.740,6,0.100,288.000,0.200,87.000,0.300,10.000,0.500,1.000,1.000,0,5.000,0
"05/07/08","09:02:57",386.000,"cc",28318.598,6,0.100,299.000,0.200,76.000,0.300,9.000,0.500,2.000,1.000,0,5.000,0
"05/07/08","09:03:03",381.000,"cc",28272.516,6,0.100,300.000,0.200,74.000,0.300,5.000,0.500,2.000,1.000,0,5.000,0
"05/07/08","09:03:09",359.000,"cc",28236.529,6,0.100,285.000,0.200,72.000,0.300,2.000,0.500,0,1.000,0,5.000,0
"05/07/08","09:03:15",351.000,"cc",28388.650,6,0.100,280.000,0.200,67.000,0.300,2.000,0.500,1.000,1.000,1.000,5.000,0
"05/07/08","09:03:21",369.000,"cc",28326.631,6,0.100,285.000,0.200,73.000,0.300,9.000,0.500,2.000,1.000,0,5.000,0
"05/07/08","09:03:27",356.000,"cc",28225.816,6,0.100,264.000,0.200,86.000,0.300,6.000,0.500,0,1.000,0,5.000,0
"05/07/08","09:03:33",400.000,"cc",28341.367,6,0.100,312.000,0.200,85.000,0.300,1.000,0.500,1.000,1.000,1.000,5.000,0
"05/07/08","09:03:39",365.000,"cc",28280.205,6,0.100,284.000,0.200,79.000,0.300,1.000,0.500,1.000,1.000,0,5.000,0
"05/07/08","09:03:45",335.000,"cc",28290.199,6,0.100,260.000,0.200,67.000,0.300,7.000,0.500,1.000,1.000,0,5.000,0
"05/07/08","09:03:51",361.000,"cc",28309.863,6,0.100,267.000,0.200,90.000,0.300,2.000,0.500,2.000,1.000,0,5.000,0
"05/07/08","09:03:57",436.000,"cc",28353.529,6,0.100,329.000,0.200,99.000,0.300,5.000,0.500,2.000,1.000,1.000,5.000,0
"05/07/08","09:04:03",377.000,"cc",28351.543,6,0.100,300.000,0.200,69.000,0.300,5.000,0.500,2.000,1.000,1.000,5.000,0
"05/07/08","09:04:09",358.000,"cc",28302.486,6,0.100,285.000,0.200,65.000,0.300,5.000,0.500,3.000,1.000,0,5.000,0
"05/07/08","09:04:15",368.000,"cc",28349.371,6,0.100,279.000,0.200,82.000,0.300,7.000,0.500,0,1.000,0,5.000,0
"05/07/08","09:04:21",370.000,"cc",28396.176,6,0.100,286.000,0.200,80.000,0.300,4.000,0.500,0,1.000,0,5.000,0
"05/07/08","09:04:27",380.000,"cc",28374.078,6,0.100,291.000,0.200,81.000,0.300,7.000,0.500,1.000,1.000,0,5.000,0
"05/07/08","09:04:33",323.000,"cc",28364.889,6,0.100,241.000,0.200,73.000,0.300,8.000,0.500,1.000,1.000,0,5.000,0
"05/07/08","09:04:39",378.000,"cc",28289.344,6,0.100,293.000,0.200,77.000,0.300,6.000,0.500,2.000,1.000,0,5.000,0
"05/07/08","09:04:45",370.000,"cc",28290.096,6,0.100,276.000,0.200,85.000,0.300,7.000,0.500,2.000,1.000,0,5.000,0
"05/07/08","09:04:51",378.000,"cc",28358.580,6,0.100,301.000,0.200,69.000,0.300,7.000,0.500,1.000,1.000,0,5.000,0
"05/07/08","09:04:57",366.000,"cc",28253.193,6,0.100,285.000,0.200,74.000,0.300,7.000,0.500,0,1.000,0,5.000,0
"05/07/08","09:05:03",364.000,"cc",28271.082,6,0.100,290.000,0.200,67.000,0.300,6.000,0.500,1.000,1.000,0,5.000,0
"05/07/08","09:05:09",356.000,"cc",28229.068,6,0.100,282.000,0.200,64.000,0.300,7.000,0.500,3.000,1.000,0,5.000,0
"05/07/08","09:05:15",391.000,"cc",28288.856,6,0.100,302.000,0.200,84.000,0.300,4.000,0.500,1.000,1.000,0,5.000,0
"05/07/08","09:05:21",422.000,"cc",28302.445,6,0.100,328.000,0.200,85.000,0.300,9.000,0.500,0,1.000,0,5.000,0
"05/07/08","09:05:27",372.000,"cc",28332.428,6,0.100,287.000,0.200,75.000,0.300,7.000,0.500,3.000,1.000,0,5.000,0
"05/07/08","09:05:33",413.000,"cc",28329.010,6,0.100,310.000,0.200,96.000,0.300,5.000,0.500,2.000,1.000,0,5.000,0
"05/07/08","09:05:39",373.000,"cc",28345.238,6,0.100,293.000,0.200,74.000,0.300,5.000,0.500,1.000,1.000,0,5.000,0
"05/07/08","09:05:45",383.000,"cc",28255.004,6,0.100,292.000,0.200,86.000,0.300,4.000,0.500,1.000,1.000,0,5.000,0
"05/07/08","09:05:51",394.000,"cc",28331.238,6,0.100,308.000,0.200,82.000,0.300,3.000,0.500,1.000,1.000,0,5.000,0
"05/07/08","09:05:57",400.000,"cc",28355.299,6,0.100,312.000,0.200,82.000,0.300,5.000,0.500,1.000,1.000,0,5.000,0
"05/07/08","09:06:03",344.000,"cc",28348.246,6,0.100,262.000,0.200,78.000,0.300,4.000,0.500,0,1.000,0,5.000,0
"05/07/08","09:06:09",425.000,"cc",28379.139,6,0.100,340.000,0.200,76.000,0.300,7.000,0.500,0,1.000,2.000,5.000,0
"05/07/08","09:06:15",381.000,"cc",28267.451,6,0.100,304.000,0.200,71.000,0.300,3.000,0.500,3.000,1.000,0,5.000,0
"05/07/08","09:06:21",433.000,"cc",28271.117,6,0.100,333.000,0.200,89.000,0.300,11.000,0.500,0,1.000,0,5.000,0
"05/07/08","09:06:27",401.000,"cc",28275.641,6,0.100,304.000,0.200,89.000,0.300,7.000,0.500,1.000,1.000,0,5.000,0
"05/07/08","09:06:33",417.000,"cc",28352.973,6,0.100,342.000,0.200,70.000,0.300,4.000,0.500,1.000,1.000,0,5.000,0
"05/07/08","09:06:39",434.000,"cc",28325.613,6,0.100,340.000,0.200,86.000,0.300,7.000,0.500,1.000,1.000,0,5.000,0
"05/07/08","09:06:45",396.000,"cc",28324.656,6,0.100,313.000,0.200,76.000,0.300,5.000,0.500,2.000,1.000,0,5.000,0
"05/07/08","09:06:51",389.000,"cc",28335.547,6,0.100,304.000,0.200,76.000,0.300,9.000,0.500,0,1.000,0,5.000,0
"05/07/08","09:06:57",426.000,"cc",28362.018,6,0.100,318.000,0.200,100.000,0.300,7.000,0.500,0,1.000,1.000,5.000,0
"05/07/08","09:07:03",398.000,"cc",28385.406,6,0.100,315.000,0.200,77.000,0.300,5.000,0.500,1.000,1.000,0,5.000,0
"05/07/08","09:07:09",414.000,"cc",28294.395,6,0.100,330.000,0.200,81.000,0.300,3.000,0.500,0,1.000,0,5.000,0
"05/07/08","09:07:15",374.000,"cc",28344.336,6,0.100,290.000,0.200,76.000,0.300,7.000,0.500,0,1.000,1.000,5.000,0
"05/07/08","09:07:21",423.000,"cc",28333.031,6,0.100,343.000,0.200,71.000,0.300,7.000,0.500,1.000,1.000,1.000,5.000,0
"05/07/08","09:07:27",395.000,"cc",28283.865,6,0.100,302.000,0.200,88.000,0.300,3.000,0.500,1.000,1.000,1.000,5.000,0
"05/07/08","09:07:33",440.000,"cc",28345.035,6,0.100,330.000,0.200,103.000,0.300,5.000,0.500,2.000,1.000,0,5.000,0
"05/07/08","09:07:39",427.000,"cc",28304.635,6,0.100,346.000,0.200,75.000,0.300,5.000,0.500,1.000,1.000,0,5.000,0
"05/07/08","09:07:45",424.000,"cc",28222.566,6,0.100,340.000,0.200,76.000,0.300,6.000,0.500,2.000,1.000,0,5.000,0
"05/07/08","09:07:51",442.000,"cc",28230.838,6,0.100,353.000,0.200,77.000,0.300,10.000,0.500,2.000,1.000,0,5.000,0
"05/07/08","09:07:57",432.000,"cc",28385.123,6,0.100,345.000,0.200,83.000,0.300,3.000,0.500,1.000,1.000,0,5.000,0
"05/07/08","09:08:03",440.000,"cc",28304.986,6,0.100,351.000,0.200,77.000,0.300,10.000,0.500,1.000,1.000,1.000,5.000,0
"05/07/08","09:08:09",377.000,"cc",28322.486,6,0.100,294.000,0.200,75.000,0.300,7.000,0.500,1.000,1.000,0,5.000,0
"05/07/08","09:08:15",405.000,"cc",28385.947,6,0.100,320.000,0.200,77.000,0.300,5.000,0.500,3.000,1.000,0,5.000,0
"05/07/08","09:08:21",414.000,"cc",28312.885,6,0.100,320.000,0.200,86.000,0.300,6.000,0.500,2.000,1.000,0,5.000,0
"05/07/08","09:08:27",406.000,"cc",28299.629,6,0.100,330.000,0.200,67.000,0.300,6.000,0.500,2.000,1.000,1.000,5.000,0
"05/07/08","09:08:33",427.000,"cc",28339.352,6,0.100,342.000,0.200,80.000,0.300,5.000,0.500,0,1.000,0,5.000,0
"05/07/08","09:08:39",425.000,"cc",28296.549,6,0.100,354.000,0.200,64.000,0.300,6.000,0.500,0,1.000,1.000,5.000,0
"05/07/08","09:08:45",423.000,"cc",28222.164,6,0.100,329.000,0.200,90.000,0.300,2.000,0.500,2.000,1.000,0,5.000,0
"05/07/08","09:08:51",435.000,"cc",28298.279,6,0.100,336.000,0.200,89.000,0.300,10.000,0.500,0,1.000,0,5.000,0
"05/07/08","09:08:57",448.000,"cc",28386.889,6,0.100,350.000,0.200,94.000,0.300,3.000,0.500,0,1.000,1.000,5.000,0
"05/07/08","09:09:03",406.000,"cc",28322.174,6,0.100,323.000,0.200,77.000,0.300,5.000,0.500,0,1.000,1.000,5.000,0
"05/07/08","09:09:09",433.000,"cc",28372.272,6,0.100,359.000,0.200,68.000,0.300,6.000,0.500,0,1.000,0,5.000,0
"05/07/08","09:09:15",405.000,"cc",28314.842,6,0.100,325.000,0.200,73.000,0.300,5.000,0.500,2.000,1.000,0,5.000,0
"05/07/08","09:09:21",422.000,"cc",28337.988,6,0.100,337.000,0.200,78.000,0.300,4.000,0.500,2.000,1.000,1.000,5.000,0
"05/07/08","09:09:27",453.000,"cc",28337.945,6,0.100,365.000,0.200,82.000,0.300,5.000,0.500,1.000,1.000,0,5.000,0
"05/07/08","09:09:33",412.000,"cc",28316.518,6,0.100,318.000,0.200,87.000,0.300,5.000,0.500,2.000,1.000,0,5.000,0
"05/07/08","09:09:39",438.000,"cc",28337.861,6,0.100,352.000,0.200,83.000,0.300,2.000,0.500,1.000,1.000,0,5.000,0
"05/07/08","09:09:45",419.000,"cc",28306.609,6,0.100,318.000,0.200,92.000,0.300,7.000,0.500,2.000,1.000,0,5.000,0
"05/07/08","09:09:51",462.000,"cc",28298.486,6,0.100,360.000,0.200,91.000,0.300,9.000,0.500,2.000,1.000,0,5.000,0
"05/07/08","09:09:57",455.000,"cc",28251.152,6,0.100,352.000,0.200,94.000,0.300,9.000,0.500,0,1.000,0,5.000,0
"05/07/08","09:10:03",468.000,"cc",28272.438,6,0.100,362.000,0.200,101.000,0.300,3.000,0.500,1.000,1.000,1.000,5.000,0
"05/07/08","09:10:09",481.000,"cc",28298.865,6,0.100,386.000,0.200,86.000,0.300,9.000,0.500,0,1.000,0,5.000,0
"05/07/08","09:10:15",425.000,"cc",28309.154,6,0.100,325.000,0.200,90.000,0.300,10.000,0.500,0,1.000,0,5.000,0
"05/07/08","09:10:21",470.000,"cc",28358.568,6,0.100,374.000,0.200,86.000,0.300,8.000,0.500,2.000,1.000,0,5.000,0
"05/07/08","09:10:27",458.000,"cc",28362.467,6,0.100,355.000,0.200,100.000,0.300,3.000,0.500,0,1.000,0,5.000,0
"05/07/08","09:10:33",437.000,"cc",28353.152,6,0.100,343.000,0.200,88.000,0.300,5.000,0.500,1.000,1.000,0,5.000,0
"05/07/08","09:10:39",445.000,"cc",28331.152,6,0.100,343.000,0.200,93.000,0.300,7.000,0.500,2.000,1.000,0,5.000,0
"05/07/08","09:10:45",402.000,"cc",28331.842,6,0.100,316.000,0.200,77.000,0.300,8.000,0.500,1.000,1.000,0,5.000,0
"05/07/08","09:10:51",435.000,"cc",28308.600,6,0.100,336.000,0.200,94.000,0.300,3.000,0.500,2.000,1.000,0,5.000,0
"05/07/08","09:10:57",422.000,"cc",28259.479,6,0.100,337.000,0.200,78.000,0.300,6.000,0.500,1.000,1.000,0,5.000,0
"05/07/08","09:11:03",404.000,"cc",28289.033,6,0.100,324.000,0.200,74.000,0.300,4.000,0.500,2.000,1.000,0,5.000,0
"05/07/08","09:11:09",415.000,"cc",28266.191,6,0.100,326.000,0.200,80.000,0.300,8.000,0.500,1.000,1.000,0,5.000,0
"05/07/08","09:11:15",419.000,"cc",28314.668,6,0.100,316.000,0.200,95.000,0.300,5.000,0.500,3.000,1.000,0,5.000,0
"05/07/08","09:11:21",416.000,"cc",28341.764,6,0.100,328.000,0.200,81.000,0.300,7.000,0.500,0,1.000,0,5.000,0
"05/07/08","09:11:27",419.000,"cc",28415.633,6,0.100,320.000,0.200,87.000,0.300,8.000,0.500,4.000,1.000,0,5.000,0
"05/07/08","09:11:33",430.000,"cc",28303.785,6,0.100,338.000,0.200,84.000,0.300,6.000,0.500,1.000,1.000,1.000,5.000,0
"05/07/08","09:11:39",462.000,"cc",28325.213,6,0.100,357.000,0.200,103.000,0.300,2.000,0.500,0,1.000,0,5.000,0
"05/07/08","09:11:45",457.000,"cc",28294.365,6,0.100,348.000,0.200,100.000,0.300,7.000,0.500,2.000,1.000,0,5.000,0
"05/07/08","09:11:51",437.000,"cc",28307.432,6,0.100,343.000,0.200,89.000,0.300,5.000,0.500,0,1.000,0,5.000,0
"05/07/08","09:11:57",422.000,"cc",28267.232,6,0.100,328.000,0.200,85.000,0.300,7.000,0.500,2.000,1.000,0,5.000,0
"05/07/08","09:12:03",453.000,"cc",28280.385,6,0.100,356.000,0.200,88.000,0.300,8.000,0.500,1.000,1.000,0,5.000,0
"05/07/08","09:12:09",436.000,"cc",28360.633,6,0.100,344.000,0.200,82.000,0.300,8.000,0.500,2.000,1.000,0,5.000,0
"05/07/08","09:12:15",396.000,"cc",28310.887,6,0.100,325.000,0.200,63.000,0.300,6.000,0.500,1.000,1.000,1.000,5.000,0
"05/07/08","09:12:21",427.000,"cc",28289.254,6,0.100,334.000,0.200,81.000,0.300,10.000,0.500,2.000,1.000,0,5.000,0
"05/07/08","09:12:27",376.000,"cc",28230.908,6,0.100,295.000,0.200,79.000,0.300,2.000,0.500,0,1.000,0,5.000,0
"05/07/08","09:12:33",429.000,"cc",28344.965,6,0.100,341.000,0.200,84.000,0.300,2.000,0.500,2.000,1.000,0,5.000,0
"05/07/08","09:12:39",422.000,"cc",28375.760,6,0.100,333.000,0.200,82.000,0.300,7.000,0.500,0,1.000,0,5.000,0
"05/07/08","09:12:45",466.000,"cc",28303.438,6,0.100,356.000,0.200,99.000,0.300,10.000,0.500,1.000,1.000,0,5.000,0
"05/07/08","09:12:51",431.000,"cc",28406.773,6,0.100,317.000,0.200,106.000,0.300,8.000,0.500,0,1.000,0,5.000,0
"05/07/08","09:12:57",433.000,"cc",28418.065,6,0.100,341.000,0.200,88.000,0.300,4.000,0.500,0,1.000,0,5.000,0
"05/07/08","09:13:03",439.000,"cc",28270.420,6,0.100,342.000,0.200,91.000,0.300,6.000,0.500,0,1.000,0,5.000,0
"05/07/08","09:13:09",443.000,"cc",28298.481,6,0.100,330.000,0.200,104.000,0.300,6.000,0.500,3.000,1.000,0,5.000,0
"05/07/08","09:13:15",440.000,"cc",28332.555,6,0.100,335.000,0.200,98.000,0.300,6.000,0.500,0,1.000,1.000,5.000,0
"05/07/08","09:13:21",398.000,"cc",28348.318,6,0.100,306.000,0.200,81.000,0.300,10.000,0.500,1.000,1.000,0,5.000,0
"05/07/08","09:13:27",408.000,"cc",28305.668,6,0.100,320.000,0.200,76.000,0.300,12.000,0.500,0,1.000,0,5.000,0
"05/07/08","09:13:33",437.000,"cc",28339.756,6,0.100,337.000,0.200,89.000,0.300,9.000,0.500,1.000,1.000,1.000,5.000,0
"05/07/08","09:13:39",448.000,"cc",28328.678,6,0.100,350.000,0.200,85.000,0.300,8.000,0.500,5.000,1.000,0,5.000,0
"05/07/08","09:13:45",394.000,"cc",28292.223,6,0.100,299.000,0.200,87.000,0.300,8.000,0.500,0,1.000,0,5.000,0
"05/07/08","09:13:51",404.000,"cc",28324.356,6,0.100,299.000,0.200,101.000,0.300,2.000,0.500,2.000,1.000,0,5.000,0
"05/07/08","09:13:57",442.000,"cc",28273.414,6,0.100,361.000,0.200,74.000,0.300,5.000,0.500,2.000,1.000,0,5.000,0
"05/07/08","09:14:03",441.000,"cc",28361.033,6,0.100,339.000,0.200,93.000,0.300,9.000,0.500,0,1.000,0,5.000,0
"05/07/08","09:14:09",453.000,"cc",28301.109,6,0.100,355.000,0.200,94.000,0.300,4.000,0.500,0,1.000,0,5.000,0
"05/07/08","09:14:15",432.000,"cc",28272.791,6,0.100,340.000,0.200,82.000,0.300,4.000,0.500,6.000,1.000,0,5.000,0
"05/07/08","09:14:21",429.000,"cc",28309.920,6,0.100,323.000,0.200,98.000,0.300,5.000,0.500,3.000,1.000,0,5.000,0
"05/07/08","09:14:27",438.000,"cc",28358.805,6,0.100,335.000,0.200,96.000,0.300,6.000,0.500,1.000,1.000,0,5.000,0
"05/07/08","09:14:33",451.000,"cc",28266.123,6,0.100,360.000,0.200,84.000,0.300,6.000,0.500,1.000,1.000,0,5.000,0
"05/07/08","09:14:39",385.000,"cc",28317.799,6,0.100,312.000,0.200,68.000,0.300,4.000,0.500,1.000,1.000,0,5.000,0
"05/07/08","09:14:45",451.000,"cc",28282.563,6,0.100,344.000,0.200,97.000,0.300,6.000,0.500,4.000,1.000,0,5.000,0
"05/07/08","09:14:51",451.000,"cc",28274.801,6,0.100,354.000,0.200,89.000,0.300,8.000,0.500,0,1.000,0,5.000,0
"05/07/08","09:14:57",482.000,"cc",28349.324,6,0.100,387.000,0.200,86.000,0.300,9.000,0.500,0,1.000,0,5.000,0
"05/07/08","09:15:03",481.000,"cc",28322.309,6,0.100,376.000,0.200,92.000,0.300,12.000,0.500,1.000,1.000,0,5.000,0
"05/07/08","09:15:09",446.000,"cc",28357.762,6,0.100,342.000,0.200,97.000,0.300,7.000,0.500,0,1.000,0,5.000,0
"05/07/08","09:15:15",470.000,"cc",28340.613,6,0.100,392.000,0.200,75.000,0.300,3.000,0.500,0,1.000,0,5.000,0
"05/07/08","09:15:21",432.000,"cc",28215.229,6,0.100,349.000,0.200,75.000,0.300,6.000,0.500,1.000,1.000,1.000,5.000,0
"05/07/08","09:15:27",486.000,"cc",28287.809,6,0.100,381.000,0.200,96.000,0.300,7.000,0.500,2.000,1.000,0,5.000,0
"05/07/08","09:15:33",436.000,"cc",28310.750,6,0.100,342.000,0.200,87.000,0.300,5.000,0.500,1.000,1.000,1.000,5.000,0
"05/07/08","09:15:39",445.000,"cc",28353.104,6,0.100,341.000,0.200,92.000,0.300,10.000,0.500,2.000,1.000,0,5.000,0
"05/07/08","09:15:45",427.000,"cc",28255.463,6,0.100,329.000,0.200,87.000,0.300,10.000,0.500,1.000,1.000,0,5.000,0
"05/07/08","09:15:51",424.000,"cc",28344.668,6,0.100,318.000,0.200,96.000,0.300,8.000,0.500,1.000,1.000,1.000,5.000,0
"05/07/08","09:15:57",497.000,"cc",28375.088,6,0.100,372.000,0.200,118.000,0.300,5.000,0.500,2.000,1.000,0,5.000,0
"05/07/08","09:16:03",449.000,"cc",28335.211,6,0.100,349.000,0.200,88.000,0.300,11.000,0.500,1.000,1.000,0,5.000,0
"05/07/08","09:16:09",407.000,"cc",28310.410,6,0.100,311.000,0.200,87.000,0.300,9.000,0.500,0,1.000,0,5.000,0
"05/07/08","09:16:15",439.000,"cc",28281.150,6,0.100,345.000,0.200,90.000,0.300,3.000,0.500,1.000,1.000,0,5.000,0
"05/07/08","09:16:21",446.000,"cc",28363.356,6,0.100,343.000,0.200,92.000,0.300,3.000,0.500,7.000,1.000,1.000,5.000,0
"05/07/08","09:16:27",460.000,"cc",28364.383,6,0.100,367.000,0.200,87.000,0.300,5.000,0.500,1.000,1.000,0,5.000,0
"05/07/08","09:16:33",449.000,"cc",28249.760,6,0.100,346.000,0.200,95.000,0.300,7.000,0.500,1.000,1.000,0,5.000,0
"05/07/08","09:16:39",452.000,"cc",28297.645,6,0.100,368.000,0.200,82.000,0.300,1.000,0.500,1.000,1.000,0,5.000,0
"05/07/08","09:16:45",431.000,"cc",28330.133,6,0.100,337.000,0.200,90.000,0.300,3.000,0.500,1.000,1.000,0,5.000,0
"05/07/08","09:16:51",417.000,"cc",28315.701,6,0.100,329.000,0.200,76.000,0.300,12.000,0.500,0,1.000,0,5.000,0
"05/07/08","09:16:57",484.000,"cc",28306.758,6,0.100,381.000,0.200,88.000,0.300,9.000,0.500,6.000,1.000,0,5.000,0
"05/07/08","09:17:03",447.000,"cc",28316.131,6,0.100,359.000,0.200,80.000,0.300,6.000,0.500,2.000,1.000,0,5.000,0
"05/07/08","09:17:09",462.000,"cc",28283.152,6,0.100,362.000,0.200,94.000,0.300,6.000,0.500,0,1.000,0,5.000,0
"05/07/08","09:17:15",454.000,"cc",28360.856,6,0.100,349.000,0.200,98.000,0.300,7.000,0.500,0,1.000,0,5.000,0
"05/07/08","09:17:21",442.000,"cc",28349.750,6,0.100,333.000,0.200,98.000,0.300,9.000,0.500,1.000,1.000,1.000,5.000,0
"05/07/08","09:17:27",477.000,"cc",28302.684,6,0.100,367.000,0.200,101.000,0.300,8.000,0.500,1.000,1.000,0,5.000,0
"05/07/08","09:17:33",429.000,"cc",28281.715,6,0.100,335.000,0.200,87.000,0.300,4.000,0.500,3.000,1.000,0,5.000,0
"05/07/08","09:17:39",457.000,"cc",28246.090,6,0.100,359.000,0.200,94.000,0.300,3.000,0.500,1.000,1.000,0,5.000,0
"05/07/08","09:17:45",481.000,"cc",28352.856,6,0.100,368.000,0.200,103.000,0.300,8.000,0.500,1.000,1.000,1.000,5.000,0
"05/07/08","09:17:51",428.000,"cc",28367.643,6,0.100,335.000,0.200,90.000,0.300,3.000,0.500,0,1.000,0,5.000,0
"05/07/08","09:17:57",484.000,"cc",28322.270,6,0.100,389.000,0.200,88.000,0.300,7.000,0.500,0,1.000,0,5.000,0
"05/07/08","09:18:03",490.000,"cc",28376.514,6,0.100,391.000,0.200,90.000,0.300,8.000,0.500,1.000,1.000,0,5.000,0
"05/07/08","09:18:09",477.000,"cc",28311.852,6,0.100,381.000,0.200,85.000,0.300,9.000,0.500,2.000,1.000,0,5.000,0
"05/07/08","09:18:15",459.000,"cc",28320.672,6,0.100,379.000,0.200,71.000,0.300,9.000,0.500,0,1.000,0,5.000,0
"05/07/08","09:18:21",448.000,"cc",28320.356,6,0.100,346.000,0.200,96.000,0.300,5.000,0.500,1.000,1.000,0,5.000,0
"05/07/08","09:18:27",484.000,"cc",28312.285,6,0.100,394.000,0.200,82.000,0.300,6.000,0.500,2.000,1.000,0,5.000,0
"05/07/08","09:18:33",518.000,"cc",28316.783,6,0.100,409.000,0.200,104.000,0.300,4.000,0.500,1.000,1.000,0,5.000,0
"05/07/08","09:18:39",501.000,"cc",28341.434,6,0.100,386.000,0.200,108.000,0.300,7.000,0.500,0,1.000,0,5.000,0
"05/07/08","09:18:45",482.000,"cc",28321.484,6,0.100,374.000,0.200,98.000,0.300,9.000,0.500,1.000,1.000,0,5.000,0
"05/07/08","09:18:51",506.000,"cc",28342.900,6,0.100,395.000,0.200,97.000,0.300,13.000,0.500,1.000,1.000,0,5.000,0
"05/07/08","09:18:57",490.000,"cc",28304.662,6,0.100,381.000,0.200,97.000,0.300,10.000,0.500,1.000,1.000,1.000,5.000,0
"05/07/08","09:19:03",534.000,"cc",28308.717,6,0.100,427.000,0.200,94.000,0.300,12.000,0.500,1.000,1.000,0,5.000,0
"05/07/08","09:19:09",511.000,"cc",28285.807,6,0.100,403.000,0.200,99.000,0.300,8.000,0.500,1.000,1.000,0,5.000,0
"05/07/08","09:19:15",492.000,"cc",28290.996,6,0.100,374.000,0.200,110.000,0.300,5.000,0.500,3.000,1.000,0,5.000,0
"05/07/08","09:19:21",513.000,"cc",28352.318,6,0.100,417.000,0.200,91.000,0.300,3.000,0.500,2.000,1.000,0,5.000,0
"05/07/08","09:19:27",458.000,"cc",28344.168,6,0.100,365.000,0.200,88.000,0.300,5.000,0.500,0,1.000,0,5.000,0
"05/07/08","09:19:33",516.000,"cc",28296.326,6,0.100,389.000,0.200,116.000,0.300,8.000,0.500,3.000,1.000,0,5.000,0
"05/07/08","09:19:39",473.000,"cc",28267.744,6,0.100,380.000,0.200,86.000,0.300,6.000,0.500,1.000,1.000,0,5.000,0
"05/07/08","09:19:45",545.000,"cc",28226.738,6,0.100,418.000,0.200,119.000,0.300,8.000,0.500,0,1.000,0,5.000,0